Volver al catálogo

HULIANWANG DIGUI-58

ActivoComunicacionesPO
NORAD 65164·PAYLOAD·🇨🇳 China

Lanzado Aug 13, 2025 desde Wenchang Space Launch Site

Loading…

Próximos Pases (próximas 24 horas)

TLE

ActualizadoSource: Space-Track

Época: Sep 14, 2026, 22:37 UTC

1 65164U 25174A   26257.94261978  .00000044  00000-0  68639-4 0  9993
2 65164  86.4979 221.7054 0002240  80.1254 280.0133 13.24399960 52679

Sigue HULIANWANG DIGUI-58 en tiempo real con AllMySat

Download on the App Store